Accueil
METAR-TAF:

METAR-TAF

Aéroports :

Aéroport de Saint-Brieuc Armor

Saint-Brieuc, France

latitude: 48-32N, longitude: 002-51W, altitude: 138 m

Observation

Le bulletin a été fait il y a 26 minutes, à 16:30 UTC
Vent 6 kt de ouest/sud-ouest
Température 5°C
Humidité 87%
Pression 1021 hPa
Visibilité 10 km ou plus
Nuages fragmentés à une hauteur de 2900 ft
Ciel couvert à une hauteur de 5000 ft

METAR: LFRT 211630Z AUTO 25006KT 9999 BKN029 OVC050 05/03 Q1021

Heure: 17:56 (16:56 UTC)


TAF: absent

Observations et prévisions météorologiques de plus de 4000 aéroports (messages METAR et TAF).

Les stations disponibles sont représentées par des disques jaunes et rouges sur la carte.

Passer la souris dessus pour voir le nom de la station.

Cliquer dessus pour voir les observations et prévisions météorologiques.

Pour changer de carte: cliquez sur les boutons verts avec une croix noire pour zoomer, sur le bouton vert avec un tiret pour effectuer un zoom arrière, ou sur les flèches vertes pour les cartes adjacentes.


METAR-TAF: